When you browse on this site, cookies collect data to enhance your experience and personalize the content and advertising you see.
Visit our Privacy Policy to learn more. By continuing to use the site, you agree to this use of cookies and data.
  • In Österreich
  • Länderverzeichnis
  • Für 7 Tage
  • Wassertemperatur
  • Satellitenkarten
  • Wetterkarte
  • News
  • Widgets
  • user-avatar
    Anmelden

    Stündliche Wetter Krzywokleszcz

    Heute, 19 Dezember, Mittwoch

    Zeit Temperatur Niederschläge Wind Luftdruck Luftfeuchtigkeit
    00:00 -1°C° 0 mm 2 m/S 763 mmHg 94%
    01:00 -1°C° 0 mm 3 m/S 763 mmHg 94%
    02:00 -1°C° 0 mm 3 m/S 762 mmHg 93%
    03:00 -1°C° 0 mm 3 m/S 762 mmHg 93%
    04:00 -1°C° 0 mm 3 m/S 762 mmHg 92%
    05:00 -1°C° 0 mm 3 m/S 761 mmHg 92%
    06:00 -2°C° 0 mm 4 m/S 761 mmHg 91%
    07:00 -3°C° 0 mm 4 m/S 761 mmHg 91%
    08:00 -2°C° 0 mm 4 m/S 760 mmHg 88%
    09:00 -2°C° 0 mm 4 m/S 760 mmHg 85%
    10:00 -1°C° 0 mm 4 m/S 760 mmHg 82%
    11:00 -1°C° 0 mm 4 m/S 759 mmHg 80%
    12:00 0°C° 0 mm 4 m/S 759 mmHg 78%
    13:00 0°C° 0 mm 4 m/S 759 mmHg 75%
    14:00 0°C° 0 mm 4 m/S 758 mmHg 77%
    15:00 0°C° 0 mm 4 m/S 758 mmHg 78%
    16:00 0°C° 0 mm 3 m/S 758 mmHg 80%
    17:00 0°C° 0 mm 3 m/S 758 mmHg 80%
    18:00 0°C° 0 mm 3 m/S 758 mmHg 81%
    19:00 0°C° 0 mm 3 m/S 758 mmHg 81%
    20:00 0°C° 0.2 mm 3 m/S 757 mmHg 83%
    21:00 0°C° 0.2 mm 3 m/S 757 mmHg 84%
    22:00 0°C° 0.2 mm 3 m/S 757 mmHg 85%
    23:00 0°C° 0.5 mm 3 m/S 757 mmHg 86%

    Morgen, 20 Dezember, Donnerstag

    Zeit Temperatur Niederschläge Wind Luftdruck Luftfeuchtigkeit
    00:00 0°C° 0.5 mm 3 m/S 757 mmHg 88%
    01:00 0°C° 0.5 mm 3 m/S 758 mmHg 89%
    02:00 0°C° 0.4 mm 3 m/S 757 mmHg 90%
    03:00 +1°C° 0.4 mm 2 m/S 757 mmHg 91%
    04:00 +1°C° 0.4 mm 2 m/S 757 mmHg 92%
    05:00 0°C° 0.2 mm 3 m/S 757 mmHg 92%
    06:00 0°C° 0.2 mm 3 m/S 757 mmHg 93%
    07:00 0°C° 0.2 mm 3 m/S 757 mmHg 93%
    08:00 0°C° 0.1 mm 3 m/S 757 mmHg 93%
    09:00 0°C° 0.1 mm 3 m/S 757 mmHg 93%
    10:00 0°C° 0.1 mm 3 m/S 757 mmHg 92%
    11:00 0°C° 0.1 mm 3 m/S 757 mmHg 92%
    12:00 +1°C° 0.1 mm 3 m/S 757 mmHg 91%
    13:00 +1°C° 0.1 mm 3 m/S 756 mmHg 91%
    14:00 +1°C° 0.2 mm 3 m/S 756 mmHg 91%
    15:00 +1°C° 0.2 mm 3 m/S 756 mmHg 92%
    16:00 +1°C° 0.2 mm 3 m/S 756 mmHg 93%
    17:00 +1°C° 0.2 mm 3 m/S 756 mmHg 93%
    18:00 +1°C° 0.2 mm 3 m/S 756 mmHg 93%
    19:00 +1°C° 0.2 mm 3 m/S 756 mmHg 93%
    20:00 +1°C° 0 mm 3 m/S 756 mmHg 93%
    21:00 +1°C° 0 mm 3 m/S 756 mmHg 93%
    22:00 +1°C° 0 mm 3 m/S 756 mmHg 92%
    23:00 +1°C° 0 mm 3 m/S 756 mmHg 93%

    übermorgen, 21 Dezember, Freitag

    Zeit Temperatur Niederschläge Wind Luftdruck Luftfeuchtigkeit
    00:00 +1°C° 0 mm 3 m/S 756 mmHg 93%
    01:00 +1°C° 0 mm 3 m/S 756 mmHg 93%
    02:00 +1°C° 0 mm 3 m/S 756 mmHg 93%
    03:00 +1°C° 0 mm 3 m/S 755 mmHg 92%
    04:00 0°C° 0 mm 4 m/S 755 mmHg 92%
    05:00 +1°C° 0 mm 4 m/S 755 mmHg 92%
    06:00 +1°C° 0 mm 4 m/S 754 mmHg 91%
    07:00 +1°C° 0 mm 4 m/S 754 mmHg 91%
    08:00 +1°C° 0 mm 4 m/S 754 mmHg 90%
    09:00 +1°C° 0 mm 4 m/S 753 mmHg 89%
    10:00 +3°C° 0 mm 4 m/S 753 mmHg 89%
    11:00 +3°C° 0.1 mm 4 m/S 752 mmHg 88%
    12:00 +3°C° 0.1 mm 4 m/S 751 mmHg 88%
    13:00 +4°C° 0.1 mm 4 m/S 751 mmHg 87%
    14:00 +3°C° 0.5 mm 4 m/S 750 mmHg 88%
    15:00 +2°C° 0.5 mm 5 m/S 748 mmHg 88%
    16:00 +2°C° 0.5 mm 5 m/S 747 mmHg 89%
    17:00 +3°C° 1.7 mm 5 m/S 746 mmHg 89%
    18:00 +3°C° 1.7 mm 5 m/S 746 mmHg 90%
    19:00 +5°C° 1.7 mm 5 m/S 745 mmHg 90%
    20:00 +5°C° 0.4 mm 6 m/S 745 mmHg 86%
    21:00 +5°C° 0.4 mm 7 m/S 745 mmHg 82%
    22:00 +6°C° 0.4 mm 8 m/S 745 mmHg 77%
    23:00 +6°C° 0 mm 8 m/S 745 mmHg 77%

    22 Dezember, Samstag

    Zeit Temperatur Niederschläge Wind Luftdruck Luftfeuchtigkeit
    00:00 +5°C° 0 mm 8 m/S 745 mmHg 76%
    01:00 +5°C° 0 mm 8 m/S 746 mmHg 75%
    02:00 +5°C° 0 mm 7 m/S 746 mmHg 77%
    03:00 +5°C° 0 mm 7 m/S 746 mmHg 78%
    04:00 +4°C° 0 mm 7 m/S 746 mmHg 80%
    05:00 +4°C° 0 mm 6 m/S 746 mmHg 81%
    06:00 +4°C° 0 mm 6 m/S 746 mmHg 83%
    07:00 +4°C° 0 mm 6 m/S 746 mmHg 85%
    08:00 +6°C° 0 mm 5 m/S 746 mmHg 85%
    09:00 +6°C° 0 mm 5 m/S 745 mmHg 86%
    10:00 +6°C° 0 mm 4 m/S 745 mmHg 87%
    11:00 +6°C° 0.9 mm 4 m/S 745 mmHg 89%
    12:00 +6°C° 0.9 mm 4 m/S 745 mmHg 91%
    13:00 +5°C° 0.9 mm 4 m/S 745 mmHg 93%
    14:00 +6°C° 0.3 mm 4 m/S 746 mmHg 92%
    15:00 +6°C° 0.3 mm 5 m/S 746 mmHg 90%
    16:00 +6°C° 0.3 mm 5 m/S 747 mmHg 89%
    17:00 +6°C° 0.7 mm 5 m/S 748 mmHg 89%
    18:00 +6°C° 0.7 mm 5 m/S 748 mmHg 88%
    19:00 +6°C° 0.7 mm 5 m/S 748 mmHg 88%
    20:00 +6°C° 0.6 mm 5 m/S 749 mmHg 89%
    21:00 +6°C° 0.6 mm 5 m/S 749 mmHg 89%
    22:00 +6°C° 0.6 mm 5 m/S 750 mmHg 89%
    23:00 +6°C° 0.2 mm 5 m/S 750 mmHg 87%

    23 Dezember, Sonntag

    Zeit Temperatur Niederschläge Wind Luftdruck Luftfeuchtigkeit
    00:00 +5°C° 0.2 mm 6 m/S 751 mmHg 84%
    01:00 +5°C° 0.2 mm 6 m/S 751 mmHg 82%
    02:00 +4°C° 0.1 mm 6 m/S 752 mmHg 83%
    03:00 +4°C° 0.1 mm 6 m/S 752 mmHg 83%
    04:00 +4°C° 0.1 mm 6 m/S 753 mmHg 84%
    05:00 +4°C° 0.1 mm 6 m/S 753 mmHg 83%
    06:00 +4°C° 0.1 mm 6 m/S 753 mmHg 82%
    07:00 +4°C° 0.1 mm 6 m/S 753 mmHg 81%
    08:00 +4°C° 0.1 mm 6 m/S 754 mmHg 81%
    09:00 +4°C° 0.1 mm 6 m/S 754 mmHg 80%
    10:00 +4°C° 0.1 mm 6 m/S 754 mmHg 79%
    11:00 +5°C° 0.1 mm 6 m/S 754 mmHg 77%
    12:00 +5°C° 0.1 mm 6 m/S 754 mmHg 76%
    13:00 +5°C° 0.1 mm 7 m/S 754 mmHg 74%
    14:00 +5°C° 0.1 mm 7 m/S 754 mmHg 75%
    15:00 +5°C° 0.1 mm 6 m/S 755 mmHg 76%
    16:00 +4°C° 0.1 mm 6 m/S 755 mmHg 77%
    17:00 +4°C° 0.2 mm 6 m/S 755 mmHg 78%
    18:00 +4°C° 0.2 mm 6 m/S 756 mmHg 79%
    19:00 +4°C° 0.2 mm 6 m/S 756 mmHg 81%
    20:00 +3°C° 0.2 mm 6 m/S 757 mmHg 82%
    21:00 +3°C° 0.2 mm 5 m/S 757 mmHg 84%
    22:00 +3°C° 0.2 mm 4 m/S 758 mmHg 85%
    23:00 +3°C° 0 mm 3 m/S 759 mmHg 87%

    24 Dezember, Montag

    Zeit Temperatur Niederschläge Wind Luftdruck Luftfeuchtigkeit
    00:00 +2°C° 0 mm 3 m/S 759 mmHg 89%
    01:00 +3°C° 0 mm 2 m/S 760 mmHg 90%
    02:00 +3°C° 0 mm 2 m/S 760 mmHg 91%
    03:00 +3°C° 0 mm 2 m/S 760 mmHg 92%
    04:00 +2°C° 0 mm 2 m/S 760 mmHg 93%
    05:00 +2°C° 0.1 mm 2 m/S 761 mmHg 93%
    06:00 +3°C° 0.1 mm 2 m/S 761 mmHg 93%
    07:00 +3°C° 0.1 mm 2 m/S 761 mmHg 93%
    08:00 +3°C° 0.1 mm 2 m/S 761 mmHg 92%
    09:00 +3°C° 0.1 mm 2 m/S 762 mmHg 92%
    10:00 +4°C° 0.1 mm 2 m/S 762 mmHg 91%
    11:00 +3°C° 0.1 mm 3 m/S 762 mmHg 89%
    12:00 +4°C° 0.1 mm 3 m/S 763 mmHg 87%
    13:00 +4°C° 0.1 mm 3 m/S 763 mmHg 85%
    14:00 +4°C° 0.1 mm 3 m/S 763 mmHg 87%
    15:00 +3°C° 0.1 mm 3 m/S 763 mmHg 88%
    16:00 +4°C° 0.1 mm 2 m/S 763 mmHg 89%
    17:00 +4°C° 0 mm 2 m/S 763 mmHg 91%
    18:00 +3°C° 0 mm 2 m/S 764 mmHg 92%
    19:00 +3°C° 0 mm 2 m/S 764 mmHg 93%
    20:00 +3°C° 0 mm 2 m/S 764 mmHg 92%
    21:00 +3°C° 0 mm 2 m/S 764 mmHg 92%
    22:00 +3°C° 0 mm 2 m/S 764 mmHg 91%
    23:00 +3°C° 0 mm 1 m/S 764 mmHg 91%
    Mehr zeigen